This is the latest recevied weather packets stored in our database for station/object KX4O-13. If no packets are shown the sender has not sent any weather packets the latest 10 day(s).
| Time | Temp. | Humidity | Pressure | Rain* | Wind** | Luminosity | Snow |
|---|---|---|---|---|---|---|---|
| 1777920354 | 23.89° C | 33% | 1011 hPa | 0 mm | - | 807 W/m² | - |
| 1777920054 | 24.44° C | 36% | 1011 hPa | 0 mm | - | 800 W/m² | - |
| 1777919754 | 23.89° C | 37% | 1011.1 hPa | 0 mm | - | 837 W/m² | - |
| 1777919456 | 23.89° C | 32% | 1011.2 hPa | 0 mm | - | 835 W/m² | - |
| 1777919154 | 23.89° C | 35% | 1011.3 hPa | 0 mm | - | 833 W/m² | - |
| 1777918854 | 23.89° C | 37% | 1011.3 hPa | 0 mm | - | 835 W/m² | - |
| 1777918556 | 23.89° C | 34% | 1011.4 hPa | 0 mm | - | 861 W/m² | - |
| 1777918254 | 23.89° C | 36% | 1011.5 hPa | 0 mm | - | 860 W/m² | - |
| 1777917954 | 23.89° C | 35% | 1011.7 hPa | 0 mm | - | 851 W/m² | - |
| 1777917654 | 23.33° C | 35% | 1011.7 hPa | 0 mm | - | 854 W/m² | - |
| 1777917354 | 23.33° C | 35% | 1011.9 hPa | 0 mm | - | 870 W/m² | - |
| 1777917056 | 23.33° C | 35% | 1011.9 hPa | 0 mm | - | 853 W/m² | - |
| 1777916754 | 23.33° C | 36% | 1012 hPa | 0 mm | - | 870 W/m² | - |
| 1777916454 | 23.33° C | 36% | 1011.8 hPa | 0 mm | - | 870 W/m² | - |
| 1777916154 | 22.78° C | 34% | 1012.1 hPa | 0 mm | - | 870 W/m² | - |
| 1777915854 | 23.33° C | 35% | 1012.2 hPa | 0 mm | - | 872 W/m² | - |
| 1777915554 | 23.89° C | 36% | 1012.3 hPa | 0 mm | - | 870 W/m² | - |
| 1777915254 | 22.78° C | 38% | 1012.3 hPa | 0 mm | - | 868 W/m² | - |
| 1777914954 | 22.78° C | 33% | 1012.5 hPa | 0 mm | - | 867 W/m² | - |
| 1777914656 | 23.33° C | 35% | 1012.4 hPa | 0 mm | - | 867 W/m² | - |
| 1777914354 | 22.78° C | 35% | 1012.5 hPa | 0 mm | - | 865 W/m² | - |
| 1777914054 | 22.22° C | 34% | 1012.7 hPa | 0 mm | - | 861 W/m² | - |
| 1777913754 | 22.22° C | 35% | 1012.8 hPa | 0 mm | - | 858 W/m² | - |
| 1777913454 | 22.22° C | 38% | 1012.7 hPa | 0 mm | - | 856 W/m² | - |
| 1777913154 | 21.67° C | 37% | 1012.8 hPa | 0 mm | - | 853 W/m² | - |
* Rain latest hour (hover to see other rain measurements)
** Current wind speed in m/s (hover to see current wind gust speed)